Regional Weather Roundup
Issued by NWS

Home | Current Version | Previous Version | Text Only | Print | Product List | Glossary Off
Versions: 1 2 3 4 5 6 7 8 9 10 11 12 13 14 15 16 17 18 19 20 21 22 23 24 25 26 27 28 29 30 31 32 33 34 35 36 37 38 39 40 41 42 43 44 45 46 47 48 49 50

000
ASUS45 KABQ 022301
RWRNM
WEATHER ROUNDUP FOR NEW MEXICO
NATIONAL WEATHER SERVICE ALBUQUERQUE NM
500 PM MDT SAT MAY 02 2015

NOTE: "FAIR" MEANS FEW OR NO CLOUDS BELOW 12,000 FEET AGL WITH NO
       SIGNIFICANT WEATHER OR OBSTRUCTIONS TO VISION.

      THIS PRODUCT IS RELEASED AS TWO VERSIONS.  ONE VERSION NEAR
      THE TOP OF THE HOUR CONTAINING PRELIMINARY DATA FROM ALBUQUERQUE
      AND OTHER STATIONS.  A FINAL VERSION WITH ADDITIONAL DATA IS
      ISSUED ABOUT 10 MINUTES AFTER THE HOUR.

NMZ501-503-504-510>518-030000-
NORTHWEST PLATEAU/NORTHCENTRAL MOUNTAINS

CITY           SKY/WX    TMP DP  RH WIND       PRES   REMARKS
FARMINGTON     SUNNY     76  26  15 S14       29.95F
SANTA FE       CLOUDY    69  25  19 SW24G37   30.03F
TAOS           CLOUDY    63  30  29 N16       30.10F
ANGEL FIRE     MOCLDY    59  26  28 SW8       30.16F

$$
NMZ402-403-502-505>509-030000-
WESTCENTRAL MOUNTAINS/SOUTHWEST MOUNTAINS

CITY           SKY/WX    TMP DP  RH WIND       PRES   REMARKS
GALLUP         RAIN      57  40  52 NE22      30.11R
GRANTS         CLOUDY    70  31  23 NW3       30.09F

$$
NMZ407-409-411-412-030000-
SOUTHERN DESERTS

CITY           SKY/WX    TMP DP  RH WIND       PRES   REMARKS
DEMING         MOSUNNY   87  19   8 SW8G31    29.87F
HOLLOMAN AFB   MOSUNNY   90  15   6 S12G23    29.85R
ALAMOGORDO     MOSUNNY   90  18   7 S17G24    29.88S
T OR C         PTSUNNY   85  17   8 S18G25    29.89F

$$
NMZ519>523-030000-
CENTRAL VALLEYS/CENTRAL HIGHLANDS

CITY           SKY/WX    TMP DP  RH WIND       PRES   REMARKS
ALBUQUERQUE    LGT RAIN  70  32  24 VRB7G33   30.04R
MORIARTY ARPT  FAIR      75  22  13 N6        30.02F
CLINES CORNERS CLOUDY    65  27  23 NW24G36   30.07R
BELEN          FAIR      73  29  19 NW21G29   29.97F
SOCORRO        NOT AVBL

$$
NMZ524>526-539-540-030000-
SOUTHCENTRAL MOUNTAINS

CITY           SKY/WX    TMP DP  RH WIND       PRES   REMARKS
RUIDOSO        NOT AVBL

$$
NMZ527>531-030000-
NORTHEAST HIGHLANDS/NORTHEAST PLAINS

CITY           SKY/WX    TMP DP  RH WIND       PRES   REMARKS
LAS VEGAS      CLOUDY    63  33  32 NE12      30.08R
RATON          CLOUDY    69  28  21 S17       30.02R
CLAYTON        LGT RAIN  70  38  31 VRB3G18   29.95F

$$
NMZ532>537-030000-
EASTCENTRAL PLAINS

CITY           SKY/WX    TMP DP  RH WIND       PRES   REMARKS
TUCUMCARI      CLOUDY    83  33  16 SW14      29.87S
CANNON AFB     PTSUNNY   87  30  12 SW13G25   29.90F
CLOVIS AIRPORT MOSUNNY   82  36  18 SW17G25   29.90S

$$
NMZ028-029-538-030000-
SOUTHEAST PLAINS

CITY           SKY/WX    TMP DP  RH WIND       PRES   REMARKS
ROSWELL        MOSUNNY   89  31  12 SE14G20   29.86F
CARLSBAD       SUNNY     90  28  11 S16       29.85F
HOBBS          SUNNY     84  36  17 SE14G20   29.92


$$



USA.gov is the U.S. government's official web portal to all federal, state and local government web resources and services.